Weather observations for the past three days for
Athens, Athens Airport
Imperial (Metric)
Date Time (edt) Wind (mph) Vis. (mi.) Weather Sky Cond. Temperature (ºF) Relative Humidity Wind Chill (°F) Heat Index (°F) Pressure Precipitation (in)
Air Dwpt 6 hour altimeter (in) sea level (mb) 1 hr 3 hr 6 hr
Max. Min.
20 08:51 NE 6 10.00 Overcast OVC060 73 64 74% 30.33 1026.5
20 07:51 NE 7 10.00 Partly Cloudy SCT060 72 63 72 66.9 73% 30.32 1026.0
20 06:51 NE 5 10.00 Fair CLR 68 63 84% 30.3 1025.5
20 05:51 NE 5 10.00 Overcast OVC049 69.1 63 81% 30.29 1025.2
20 04:51 E 5 10.00 Fair CLR 68 63 84% 30.28 1024.5
20 03:51 E 3 10.00 Fair CLR 68 63 84% 30.27 1024.2
20 02:51 E 3 10.00 A Few Clouds FEW060 69.1 63 81% 30.26 1024.0
20 01:51 E 5 10.00 Fair CLR 69.1 63 82 69.1 81% 30.26 1024.0
20 00:51 E 5 10.00 Fair CLR 72 63 73% 30.26 1023.9
19 23:51 E 7 10.00 A Few Clouds FEW060 73.9 63 69% 30.26 1023.9
19 22:51 NE 6 10.00 Fair CLR 75 63 66% 77 30.26 1024.1
19 21:51 NE 6 10.00 Fair CLR 75.9 62.1 62% 78 30.25 1023.8
19 20:51 NE 8 10.00 Fair CLR 79 62.1 56% 80 30.24 1023.3
19 19:51 NE 8 10.00 Fair CLR 82 62.1 88 82 51% 83 30.23 1022.9
19 18:51 NE 10 10.00 A Few Clouds FEW060 84 62.1 48% 85 30.23 1022.9
19 17:51 E 12 10.00 Partly Cloudy SCT065 84.9 60.1 43% 85 30.23 1022.9
19 16:51 E 9 10.00 A Few Clouds FEW060 87.1 61 42% 87 30.24 1023.1
19 15:51 E 10 G 20 10.00 Partly Cloudy SCT055 87.1 61 42% 87 30.25 1023.5
19 14:51 E 6 G 24 10.00 A Few Clouds FEW050 86 60.1 42% 86 30.26 1024.0
19 13:51 E 14 G 22 10.00 Partly Cloudy SCT048 84 61 86 70 46% 84 30.28 1024.6
19 12:51 E 15 10.00 Partly Cloudy SCT049 82.9 60.1 46% 83 30.3 1025.1
19 11:51 NE 16 G 22 10.00 Partly Cloudy FEW034 SCT043 82 62.1 51% 83 30.3 1025.2
19 10:51 E 12 10.00 Mostly Cloudy FEW027 SCT033 BKN044 78.1 64 62% 80 30.3 1025.3
19 09:51 E 9 10.00 Partly Cloudy SCT020 75.9 64.9 69% 78 30.3 1025.4
19 08:51 E 10 10.00 Fair CLR 73.9 64 71% 30.3 1025.3
19 07:51 NE 8 10.00 Fair CLR 70 63 71.1 64.9 79% 30.28 1024.5
19 06:51 NE 6 10.00 Fair CLR 66.9 62.1 84% 30.25 1023.8
19 05:51 E 6 10.00 Fair CLR 66 62.1 87% 30.23 1023.0
19 04:51 E 5 10.00 Fair CLR 66.9 62.1 84% 30.21 1022.3
19 03:51 E 5 10.00 Fair CLR 68 63 84% 30.2 1021.7
19 02:51 Calm 10.00 Fair CLR 71.1 63 76% 30.2 1021.9
19 01:51 E 3 10.00 Fair CLR 71.1 62.1 82 71.1 73% 30.2 1021.9
19 00:51 E 6 10.00 Partly Cloudy SCT060 72 62.1 71% 30.21 1022.1
18 23:51 E 6 10.00 Overcast OVC060 73.9 62.1 67% 30.19 1021.6
18 22:51 NE 5 10.00 Fair CLR 73 61 66% 30.18 1021.1
18 21:51 E 5 10.00 Fair CLR 75 60.1 60% 77 30.17 1020.9
18 20:51 E 5 10.00 Fair CLR 77 60.1 56% 79 30.17 1020.8
18 19:51 E 7 10.00 Partly Cloudy SCT070 82 60.1 89.1 82 47% 82 30.15 1020.3
18 18:51 E 12 10.00 A Few Clouds FEW070 84.9 60.1 43% 85 30.15 1020.1
18 17:51 E 15 G 25 10.00 Partly Cloudy SCT065 84.9 59 42% 85 30.14 1020.0
18 16:51 E 14 10.00 A Few Clouds FEW060 87.1 62.1 43% 88 30.16 1020.4
18 15:51 NE 15 G 24 10.00 Mostly Cloudy SCT055 BKN070 88 64 45% 89 30.16 1020.5
18 14:51 E 15 G 23 10.00 Partly Cloudy SCT043 SCT060 87.1 64.9 48% 89 30.17 1020.7
18 13:51 E 14 10.00 Mostly Cloudy SCT040 BKN048 BKN065 84.9 66 86 72 53% 87 30.19 1021.4
18 12:51 E 13 G 22 10.00 Mostly Cloudy BKN038 BKN050 84.9 66 53% 87 30.19 1021.6
18 11:51 E 14 G 18 10.00 Mostly Cloudy SCT038 BKN045 82 64.9 56% 84 30.2 1021.8
18 10:51 E 13 G 18 10.00 Fair CLR 82 64.9 56% 84 30.2 1022.0
18 09:51 E 6 10.00 Fair CLR 78.1 66 67% 80 30.21 1022.1
18 08:51 E 9 10.00 A Few Clouds FEW060 75 66 74% 76 30.2 1022.0
18 07:51 E 7 10.00 Fair CLR 72 64.9 75.9 66.9 79% 30.19 1021.4
18 06:51 E 5 10.00 Fair CLR 68 64 87% 30.17 1020.9
18 05:51 Calm 10.00 Fair CLR 69.1 64 84% 30.16 1020.6
18 04:51 Calm 10.00 A Few Clouds FEW060 72 64 76% 30.16 1020.4
18 03:51 Vrbl 3 10.00 Partly Cloudy FEW047 SCT080 73.9 64 71% 30.17 1020.6
18 02:51 Vrbl 3 10.00 Mostly Cloudy FEW042 BKN060 BKN070 75.9 64.9 69% 78 30.16 1020.5
18 01:51 Calm 10.00 Mostly Cloudy BKN075 75.9 66.9 84.9 75.9 74% 77 30.17 1020.9
18 00:51 Vrbl 6 10.00 A Few Clouds FEW046 77 69.1 77% 79 30.17 1020.7
17 23:51 Calm 10.00 A Few Clouds FEW046 77 69.1 77% 79 30.16 1020.5
17 22:51 E 5 10.00 Fair CLR 77 69.1 77% 79 30.14 1019.9
17 21:51 E 3 10.00 Fair CLR 79 69.1 72% 82 30.12 1019.1
17 20:51 E 5 10.00 Fair CLR 82 68 63% 85 30.1 1018.5
17 19:51 SE 7 10.00 Fair CLR 84.9 69.1 93 84.9 59% 89 30.1 1018.4
17 18:51 E 6 10.00 Fair CLR 88 69.1 54% 92 30.09 1018.0
17 17:51 E 10 G 20 10.00 Mostly Cloudy BKN055 89.1 68 50% 93 30.09 1018.1
17 16:51 NE 8 10.00 Fair CLR 90 68 48% 94 30.1 1018.4
17 15:51 E 10 10.00 Mostly Cloudy SCT050 BKN075 90 68 48% 94 30.13 1019.2
17 14:51 Calm 10.00 A Few Clouds FEW120 91 66 44% 94 30.15 1019.9
17 13:51 SE 6 10.00 Partly Cloudy FEW045 SCT055 88 68 90 75 52% 92 30.18 1020.9
17 12:51 Vrbl 3 10.00 Mostly Cloudy SCT041 BKN049 87.1 68 53% 91 30.19 1021.4
17 11:51 Vrbl 6 10.00 Mostly Cloudy BKN035 BKN044 84.9 69.1 59% 89 30.2 1021.6
17 10:51 Calm 10.00 Fair CLR 84 68 59% 87 30.19 1021.5
17 09:51 E 7 10.00 A Few Clouds FEW018 81 69.1 67% 84 30.19 1021.5
Date Time (edt) Wind (mph) Vis. (mi.) Weather Sky Cond. Air Dwpt Max. Min. Relative Humidity Wind Chill (°F) Heat Index (°F) altimeter (in) sea level (mb) 1 hr 3 hr 6 hr
6 hour
Temperature (ºF) Pressure Precipitation (in)